Weather Roundup
Issued by NWS

Home | Current Version | Previous Version | Text Only | Print | Product List | Glossary On
Versions: 1 2 3 4 5 6 7 8 9 10 11 12 13 14 15 16 17 18 19 20 21 22 23 24 25 26 27 28 29 30 31 32 33 34 35 36 37 38 39 40 41 42 43 44 45 46 47 48 49 50
000
NZUS93 KARX 251159
HRRWXR

CURRENT HOURLY OBSERVATIONS ACROSS
MUCH OF THE UPPER MISSISSIPPI VALLEY
NATIONAL WEATHER SERVICE LA CROSSE WI
700 AM CDT FRI JUL 25 2014


...SOUTHEAST MINNESOTA...


CITY           SKY/WX    TMP DP  RH WIND       PRES   REMARKS
ROCHESTER      LGT RAIN  62  59  90 SE16G25   29.85F
ROCHESTER/MAYO CLOUDY    62  60  93 SE16G22   29.83F
WINONA         LGT RAIN  63  59  88 S6        29.92F
AUSTIN         LGT RAIN  63  61  94 S9G18     29.85F
ALBERT LEA     CLOUDY    64  63  94 S14G21    29.84F
DODGE CENTER   CLOUDY    63  61  94 SE13G23   29.85F
PRESTON        RAIN      61  61 100 SE12      29.92F
OWATONNA       CLOUDY    64  61  88 SE12G18   29.84R
FARIBAULT      CLOUDY    66  61  82 SE7       29.86R
$$

...ELSEWHERE IN MINNESOTA...


CITY           SKY/WX    TMP DP  RH WIND       PRES   REMARKS
MINNEAPOLIS    CLOUDY    64  63  96 SE14G22   29.79F
INTNL FALLS    PTSUNNY   62  59  90 SE6       29.78F
DULUTH         CLOUDY    62  57  83 SE7       29.84S
RED WING       RAIN      64  63  94 SW5       29.84F
REDWOOD FALLS  CLOUDY    67  64  90 S7        29.78R
MANKATO        CLOUDY    64  59  82 S10G18    29.82R
WORTHINGTON    MOCLDY    66  61  82 S22G29    29.79F
FAIRMONT       CLOUDY    66  61  82 S21G26    29.85S THUNDER
$$

...SOUTHWEST WISCONSIN...


CITY           SKY/WX    TMP DP  RH WIND       PRES   REMARKS
LA CROSSE      HVY RAIN  64  61  90 S17G28    29.96R FOG
PRAIRIE DU CHI CLOUDY    65  56  70 S12G18    30.00F
BOSCOBEL       CLOUDY    65  57  75 SW9       30.01R
LONE ROCK      NOT AVBL
PLATTEVILLE    CLOUDY    61  58  91 S9        30.07R
FORT MC COY    CLOUDY    64  57  79 S5        29.99R
VIROQUA        PTSUNNY   63  57  82 S12G21    30.01R
WIS DELLS      CLOUDY    62  54  73 S10       30.02S
$$

...ELSEWHERE IN WISCONSIN...


CITY           SKY/WX    TMP DP  RH WIND       PRES   REMARKS
MILWAUKEE      PTSUNNY   62  47  57 SW10      30.07R
MADISON        CLOUDY    63  54  72 SW6       30.05S
GREEN BAY      MOSUNNY   64  54  69 SW7       30.01R
EAU CLAIRE     CLOUDY    66  59  78 SE7       29.86F
BLACK RVR FLS  PTSUNNY   63  61  96 S3        29.96S
MEDFORD        CLOUDY    62  58  90 S7        29.98R
WAUSAU         LGT RAIN  62  60  93 VRB3      29.99R
WIS RAPIDS     CLOUDY    62  58  86 S9        30.00R
MARSHFIELD     CLOUDY    62  58  86 S7        29.97R
RICE LAKE      CLOUDY    65  58  79 SE8       29.90F
$$

...NORTHEAST IOWA...


CITY           SKY/WX    TMP DP  RH WIND       PRES   REMARKS
WATERLOO       LGT RAIN  62  61  96 S16G25    29.91F
DUBUQUE        LGT RAIN  60  57  89 S14       30.03S
DECORAH        CLOUDY    63  59  88 SE7       30.01R
MASON CITY     LGT RAIN  64  63  96 S8        29.90F
CHARLES CITY   CLOUDY    63  61  94 SE10      29.94F
OELWEIN        CLOUDY    63  59  88 S17G28    29.95R
$$

...ELSEWHERE IN IOWA...


CITY           SKY/WX    TMP DP  RH WIND       PRES   REMARKS
DES MOINES     LGT RAIN  66  60  81 E13       29.94F
IOWA CITY      RAIN      61  61 100 E6        30.08S
FORT DODGE     CLOUDY    64  59  82 S13G20    29.89F
MARSHALLTOWN   CLOUDY    65  63  93 S17       29.90F
CEDAR RAPIDS   LGT RAIN  61  59  93 SE12      30.01F FOG
$$

...NORTHERN ILLINOIS...


CITY           SKY/WX    TMP DP  RH WIND       PRES   REMARKS
CHICAGO-OHARE  CLOUDY    62  48  60 W9        30.09R
DUPAGE         CLOUDY    58  53  84 W3        30.09R
CHICAGO-MIDWAY CLOUDY    63  51  65 SW7       30.07R
MOLINE         LGT RAIN  62  58  86 CALM      30.09R
ROCKFORD       LGT RAIN  60  52  74 S5        30.11R
STERLING       CLOUDY    59  55  88 S3        30.08S
PEORIA         CLOUDY    64  55  72 CALM      30.09R
$$

NOTE: "FAIR" INDICATES FEW OR NO CLOUDS BELOW 12,000 FEET WITH NO
SIGNIFICANT WEATHER AND/OR OBSTRUCTIONS TO VISIBILITY. WIND
SPEEDS ARE IN MILES-PER-HOUR.



USA.gov is the U.S. government's official web portal to all federal, state and local government web resources and services.